Satellite: CO-58
Catalog number: 28895
Epoch time:      09302.68397804
Element set:     429
Inclination:      098.0390 deg
RA of node:       189.3888 deg
Eccentricity:    0.0016958
Arg of perigee:   288.2346 deg
Mean anomaly:     071.7024 deg
Mean motion:   14.59808008 rev/day
Decay rate:        5.8e-07 rev/day^2
Epoch rev:           21335
Checksum:              357

Satellite: FALCON
Catalog number: 30776
Epoch time:      09301.52606936
Element set:    0701
Inclination:      035.4341 deg
RA of node:       010.3659 deg
Eccentricity:    0.0002151
Arg of perigee:   349.4098 deg
Mean anomaly:     010.6573 deg
Mean motion:   15.03347380 rev/day
Decay rate:       8.10e-06 rev/day^2
Epoch rev:           14517
Checksum:              263

Satellite: MAST
Catalog number: 31126
Epoch time:      09302.54719563
Element set:     718
Inclination:      097.9727 deg
RA of node:       351.0820 deg
Eccentricity:    0.0093998
Arg of perigee:   222.3412 deg
Mean anomaly:     137.0506 deg
Mean motion:   14.53525534 rev/day
Decay rate:       -1.0e-08 rev/day^2
Epoch rev:           13455
Checksum:              287

Satellite: CAPE1
Catalog number: 31130
Epoch time:      09301.68475686
Element set:     729
Inclination:      097.9741 deg
RA of node:       348.1513 deg
Eccentricity:    0.0101768
Arg of perigee:   231.6114 deg
Mean anomaly:     127.5891 deg
Mean motion:   14.52097964 rev/day
Decay rate:        7.0e-08 rev/day^2
Epoch rev:           13406
Checksum:              305

Satellite: COMPASS
Catalog number: 32787
Epoch time:      09301.21083674
Element set:    0505
Inclination:      097.9274 deg
RA of node:       003.8051 deg
Eccentricity:    0.0015128
Arg of perigee:   323.6532 deg
Mean anomaly:     036.3646 deg
Mean motion:   14.81680089 rev/day
Decay rate:       5.22e-06 rev/day^2
Epoch rev:           08114
Checksum:              282

Satellite: AAUSAT2
Catalog number: 32788
Epoch time:      09301.70775043
Element set:    0499
Inclination:      097.9291 deg
RA of node:       004.3814 deg
Eccentricity:    0.0014668
Arg of perigee:   323.8046 deg
Mean anomaly:     036.2170 deg
Mean motion:   14.81806598 rev/day
Decay rate:       2.10e-06 rev/day^2
Epoch rev:           08122
Checksum:              300

Satellite: DO-64
Catalog number: 32789
Epoch time:      09301.72900771
Element set:    0517
Inclination:      097.9327 deg
RA of node:       004.6530 deg
Eccentricity:    0.0015100
Arg of perigee:   321.0501 deg
Mean anomaly:     038.9617 deg
Mean motion:   14.81831026 rev/day
Decay rate:       4.13e-06 rev/day^2
Epoch rev:           08122
Checksum:              271

Satellite: CO-66
Catalog number: 32791
Epoch time:      09302.75530484
Element set:     494
Inclination:      097.9295 deg
RA of node:       005.3652 deg
Eccentricity:    0.0015557
Arg of perigee:   316.6459 deg
Mean anomaly:     043.3524 deg
Mean motion:   14.81499947 rev/day
Decay rate:       4.88e-06 rev/day^2
Epoch rev:            8133
Checksum:              342

Satellite: RS-30
Catalog number: 32953
Epoch time:      09302.60732950
Element set:     440
Inclination:      082.5039 deg
RA of node:       173.0457 deg
Eccentricity:    0.0018087
Arg of perigee:   246.4027 deg
Mean anomaly:     113.5157 deg
Mean motion:   12.43003250 rev/day
Decay rate:        1.0e-07 rev/day^2
Epoch rev:            6509
Checksum:              257

Satellite: TACSAT-3
Catalog number: 35001
Epoch time:      09301.94262443
Element set:    0141
Inclination:      040.4547 deg
RA of node:       160.4990 deg
Eccentricity:    0.0022564
Arg of perigee:   073.6527 deg
Mean anomaly:     286.6760 deg
Mean motion:   15.39430178 rev/day
Decay rate:      4.149e-05 rev/day^2
Epoch rev:           02496
Checksum:              291

Satellite: PHARMSAT
Catalog number: 35002
Epoch time:      09302.77045651
Element set:     126
Inclination:      040.4679 deg
RA of node:       154.6024 deg
Eccentricity:    0.0025643
Arg of perigee:   084.9575 deg
Mean anomaly:     275.4165 deg
Mean motion:   15.40169408 rev/day
Decay rate:      3.889e-05 rev/day^2
Epoch rev:            2509
Checksum:              298

Satellite: HAWKSAT1
Catalog number: 35003
Epoch time:      09302.70584545
Element set:     133
Inclination:      040.4601 deg
RA of node:       153.9756 deg
Eccentricity:    0.0025274
Arg of perigee:   088.7292 deg
Mean anomaly:     271.6361 deg
Mean motion:   15.41116316 rev/day
Decay rate:      7.153e-05 rev/day^2
Epoch rev:            2510
Checksum:              265

Satellite: CP6
Catalog number: 35004
Epoch time:      09301.01761656
Element set:    0128
Inclination:      040.4592 deg
RA of node:       164.0654 deg
Eccentricity:    0.0025269
Arg of perigee:   073.8562 deg
Mean anomaly:     286.5030 deg
Mean motion:   15.41216964 rev/day
Decay rate:      9.239e-05 rev/day^2
Epoch rev:           02483
Checksum:              290

Satellite: AEROCUB3
Catalog number: 35005
Epoch time:      09301.94524888
Element set:    0131
Inclination:      040.4745 deg
RA of node:       158.9660 deg
Eccentricity:    0.0024501
Arg of perigee:   080.0053 deg
Mean anomaly:     280.3498 deg
Mean motion:   15.40996674 rev/day
Decay rate:      8.367e-05 rev/day^2
Epoch rev:           02497
Checksum:              308

